GW3864 Weather Reports


Display with metric or nautical units.
time (UTC)temp
F
wind
direction
speed
MPH
gust
MPH
rain 1hr
in
rain 24hr
in
rain mn
in
humidity
%
barometer
mb
20260505004037 74 82 3.0 4.0 0.00 0.00 0.00 31 1006.3
20260505003534 74 69 5.0 9.0 0.00 0.00 0.00 31 1006.3
20260505003026 75 56 2.0 3.0 0.00 0.00 0.00 34 1006.5
20260505002520 75 313 1.0 2.0 0.00 0.00 0.00 32 1006.3
20260505002015 75 135 3.0 3.0 0.00 0.00 0.00 33 1006.3
20260505001512 75 116 3.0 4.0 0.00 0.00 0.00 31 1006.3
20260505001009 75 107 0.0 0.0 0.00 0.00 0.00 31 1006.6
20260505000506 75 68 0.0 1.0 0.00 0.00 0.00 33 1006.5
20260505000004 75 41 3.0 3.0 0.00 0.00 0.00 31 1006.2
20260504235500 76 97 1.0 1.0 0.00 0.00 0.00 31 1006.5
20260504234956 75 89 1.0 2.0 0.00 0.00 0.00 32 1006.6
20260504234454 76 65 4.0 4.0 0.00 0.00 0.00 31 1006.5
20260504233950 76 75 0.0 1.0 0.00 0.00 0.00 31 1006.6
20260504233446 76 68 3.0 4.0 0.00 0.00 0.00 31 1006.2
20260504232943 75 76 1.0 1.0 0.00 0.00 0.00 32 1006.3
20260504232440 75 355 1.0 1.0 0.00 0.00 0.00 32 1006.5
20260504231938 75 20 4.0 6.0 0.00 0.00 0.00 31 1006.6
20260504231433 75 56 4.0 4.0 0.00 0.00 0.00 32 1006.6
20260504230930 76 348 4.0 6.0 0.00 0.00 0.00 31 1006.3
20260504230427 75 54 4.0 6.0 0.00 0.00 0.00 31 1006.5
20260504225926 75 55 0.0 0.0 0.00 0.00 0.00 32 1006.7
20260504225422 76 16 9.0 11.0 0.00 0.00 0.00 32 1006.8
20260504224919 76 65 2.0 2.0 0.00 0.00 0.00 32 1006.7
20260504224416 75 67 2.0 2.0 0.00 0.00 0.00 32 1006.5
20260504223913 76 86 0.0 1.0 0.00 0.00 0.00 31 1006.7
20260504223409 75 86 1.0 2.0 0.00 0.00 0.00 31 1006.8
20260504222905 75 180 1.0 1.0 0.00 0.00 0.00 33 1006.8
20260504222402 76 177 4.0 4.0 0.00 0.00 0.00 32 1006.8
20260504221900 76 140 2.0 4.0 0.00 0.00 0.00 34 1006.9
20260504221356 76 87 0.0 0.0 0.00 0.00 0.00 32 1006.5
20260504220854 76 102 4.0 7.0 0.00 0.00 0.00 32 1006.7
20260504220350 76 163 4.0 4.0 0.00 0.00 0.00 36 1006.8
20260504215848 75 36 0.0 0.0 0.00 0.00 0.00 31 1006.6
20260504215344 74 102 2.0 3.0 0.00 0.00 0.00 32 1006.7
20260504214840 75 79 2.0 3.0 0.00 0.00 0.00 35 1007.0
20260504214337 76 68 0.0 0.0 0.00 0.00 0.00 32 1006.8
20260504213834 76 36 1.0 1.0 0.00 0.00 0.00 32 1007.1
20260504213330 75 86 0.0 1.0 0.00 0.00 0.00 33 1007.0
20260504212828 75 156 7.0 9.0 0.00 0.00 0.00 34 1007.0
20260504212323 75 146 8.0 10.0 0.00 0.00 0.00 35 1007.1
20260504211822 76 168 1.0 2.0 0.00 0.00 0.00 35 1007.1
20260504211317 76 109 2.0 3.0 0.00 0.00 0.00 34 1007.0
20260504210815 75 40 4.0 4.0 0.00 0.00 0.00 32 1007.1
20260504210312 75 357 1.0 2.0 0.00 0.00 0.00 33 1007.0
20260504205809 75 122 3.0 4.0 0.00 0.00 0.00 35 1006.9
20260504205306 75 85 3.0 3.0 0.00 0.00 0.00 32 1007.1
20260504204805 74 104 0.0 1.0 0.00 0.00 0.00 35 1007.1
20260504204303 75 19 4.0 6.0 0.00 0.00 0.00 33 1007.1
20260504203802 73 148 4.0 6.0 0.00 0.00 0.00 35 1007.0
20260504203258 75 17 7.0 8.0 0.00 0.00 0.00 32 1007.2
20260504202753 74 134 2.0 2.0 0.00 0.00 0.00 37 1007.0
20260504202250 75 39 2.0 2.0 0.00 0.00 0.00 33 1007.2
20260504201747 76 12 3.0 3.0 0.00 0.00 0.00 33 1007.0
20260504201244 76 65 0.0 1.0 0.00 0.00 0.00 33 1007.2
20260504200742 74 346 3.0 3.0 0.00 0.00 0.00 32 1007.0
20260504200238 75 25 6.0 9.0 0.00 0.00 0.00 33 1007.3
20260504195735 73 345 6.0 8.0 0.00 0.00 0.00 34 1007.1
20260504195230 73 71 3.0 4.0 0.00 0.00 0.00 35 1007.2
20260504194728 73 29 5.0 8.0 0.00 0.00 0.00 35 1007.3
20260504194223 75 15 8.0 10.0 0.00 0.00 0.00 34 1007.1
20260504193720 74 125 3.0 6.0 0.00 0.00 0.00 34 1007.3
20260504193218 73 81 2.0 2.0 0.00 0.00 0.00 38 1007.3
20260504192716 72 21 4.0 6.0 0.00 0.00 0.00 35 1007.2
20260504192214 73 78 1.0 1.0 0.00 0.00 0.00 34 1007.3
20260504191712 73 80 1.0 1.0 0.00 0.00 0.00 35 1007.4
20260504191209 72 23 8.0 10.0 0.00 0.00 0.00 35 1007.4
20260504190704 72 78 3.0 3.0 0.00 0.00 0.00 36 1007.2
20260504190200 73 68 2.0 4.0 0.00 0.00 0.00 37 1007.5
20260504185657 72 89 4.0 6.0 0.00 0.00 0.00 41 1007.4
20260504185153 72 353 4.0 4.0 0.00 0.00 0.00 36 1007.5
20260504184650 73 129 2.0 3.0 0.00 0.00 0.00 36 1007.6
20260504184145 72 89 0.0 0.0 0.00 0.00 0.00 36 1007.5
20260504183642 74 34 3.0 4.0 0.00 0.00 0.00 38 1007.5
20260504183139 73 93 0.0 0.0 0.00 0.00 0.00 36 1007.3
20260504182637 71 64 1.0 1.0 0.00 0.00 0.00 37 1007.4
20260504182134 73 160 3.0 4.0 0.00 0.00 0.00 36 1007.5
20260504181632 72 77 0.0 1.0 0.00 0.00 0.00 38 1007.5
20260504181129 71 137 1.0 2.0 0.00 0.00 0.00 40 1007.6
20260504180628 72 56 4.0 4.0 0.00 0.00 0.00 39 1007.4
20260504180127 72 143 0.0 1.0 0.00 0.00 0.00 40 1007.5
20260504175623 72 112 2.0 4.0 0.00 0.00 0.00 44 1007.5
20260504175120 71 112 1.0 1.0 0.00 0.00 0.00 41 1007.5
20260504174618 71 20 5.0 7.0 0.00 0.00 0.00 40 1007.4
20260504174114 71 89 1.0 1.0 0.00 0.00 0.00 40 1007.5
20260504173611 71 102 0.0 1.0 0.00 0.00 0.00 39 1007.6
20260504173109 70 154 3.0 3.0 0.00 0.00 0.00 40 1007.4
20260504172605 69 63 3.0 4.0 0.00 0.00 0.00 43 1007.6
20260504172102 69 93 2.0 3.0 0.00 0.00 0.00 44 1007.3
20260504171558 69 14 8.0 9.0 0.00 0.00 0.00 40 1007.5
20260504171056 70 24 5.0 6.0 0.00 0.00 0.00 40 1007.6
20260504170551 68 76 2.0 2.0 0.00 0.00 0.00 42 1007.4
20260504150935 56 83 0.0 0.0 0.00 0.00 0.00 68 1008.0
20260504150432 55 99 0.0 1.0 0.00 0.00 0.00 68 1007.7
20260504140858 51 59 0.0 0.0 0.00 0.00 0.00 79 1007.6
20260504140354 50 128 0.0 0.0 0.00 0.00 0.00 81 1007.8
20260504130818 44 252 0.0 0.0 0.00 0.00 0.00 92 1007.0
20260504130314 44 240 1.0 2.0 0.00 0.00 0.00 92 1007.1
20260504120238 44 348 1.0 1.0 0.00 0.00 0.00 90 1006.7
20260504110705 46 264 1.0 1.0 0.00 0.00 0.00 88 1007.0
20260504110201 46 293 0.0 0.0 0.00 0.00 0.00 88 1007.0
20260504100125 47 339 0.0 0.0 0.00 0.00 0.00 84 1007.0
20260504081518 50 287 1.0 1.0 0.00 0.00 0.00 81 1006.6
20260504081014 50 287 1.0 1.0 0.00 0.00 0.00 81 1006.5
20260504080510 50 286 1.0 1.0 0.00 0.00 0.00 82 1006.8
20260504050317 54 239 0.0 1.0 0.00 0.00 0.00 72 1007.2
20260504045814 54 239 0.0 0.0 0.00 0.00 0.00 72 1007.2
20260504045314 54 240 0.0 0.0 0.00 0.00 0.00 71 1007.0
20260504044812 54 239 0.0 0.0 0.00 0.00 0.00 71 1007.3
20260504044309 54 239 0.0 0.0 0.00 0.00 0.00 71 1007.2
20260504043806 55 239 0.0 0.0 0.00 0.00 0.00 71 1007.1
20260504043303 55 240 0.0 0.0 0.00 0.00 0.00 70 1007.3
20260504042801 55 239 0.0 0.0 0.00 0.00 0.00 70 1007.3
20260504042257 55 240 1.0 1.0 0.00 0.00 0.00 70 1007.2
20260504041753 56 239 1.0 1.0 0.00 0.00 0.00 70 1007.4
20260504041249 56 235 1.0 1.0 0.00 0.00 0.00 69 1007.1
20260504040745 56 233 1.0 1.0 0.00 0.00 0.00 70 1007.4
20260504040243 56 235 1.0 1.0 0.00 0.00 0.00 70 1007.1
20260504035739 56 242 1.0 1.0 0.00 0.00 0.00 69 1007.3
20260504035236 56 294 2.0 2.0 0.00 0.00 0.00 69 1006.9
20260504034734 57 246 1.0 1.0 0.00 0.00 0.00 71 1007.2
20260504034231 57 246 1.0 1.0 0.00 0.00 0.00 71 1007.2
20260504033729 57 261 1.0 1.0 0.00 0.00 0.00 69 1007.0
20260504033226 58 253 1.0 1.0 0.00 0.00 0.00 69 1007.0
20260504032723 58 246 1.0 2.0 0.00 0.00 0.00 69 1006.9
20260504032220 58 249 1.0 2.0 0.00 0.00 0.00 68 1007.0
20260504031716 59 256 1.0 1.0 0.00 0.00 0.00 68 1006.9
20260504031214 59 256 1.0 2.0 0.00 0.00 0.00 67 1006.9
20260504030709 60 252 1.0 2.0 0.00 0.00 0.00 66 1007.1
20260504030207 60 264 1.0 2.0 0.00 0.00 0.00 65 1007.0
20260504025703 60 259 1.0 1.0 0.00 0.00 0.00 64 1007.0
20260504025200 61 265 1.0 1.0 0.00 0.00 0.00 63 1007.0
20260504024657 61 256 1.0 2.0 0.00 0.00 0.00 62 1007.1
20260504024153 62 256 1.0 2.0 0.00 0.00 0.00 61 1007.0
20260504023650 63 253 1.0 1.0 0.00 0.00 0.00 61 1007.0
20260504023146 63 253 1.0 1.0 0.00 0.00 0.00 58 1007.0
20260504022643 64 253 0.0 1.0 0.00 0.00 0.00 56 1007.2
20260504022138 65 253 1.0 1.0 0.00 0.00 0.00 54 1007.0
20260504021637 65 249 1.0 1.0 0.00 0.00 0.00 54 1007.0
20260504021133 67 282 0.0 0.0 0.00 0.00 0.00 52 1007.3
20260504020630 68 291 0.0 1.0 0.00 0.00 0.00 51 1007.1
20260504020126 70 305 1.0 1.0 0.00 0.00 0.00 48 1007.1
20260504015623 71 268 1.0 1.0 0.00 0.00 0.00 47 1007.3
20260504015119 73 333 0.0 1.0 0.00 0.00 0.00 46 1007.1
20260504014615 74 334 0.0 0.0 0.00 0.00 0.00 43 1007.4
20260504014113 76 12 0.0 0.0 0.00 0.00 0.00 40 1007.5
20260504013610 76 13 0.0 0.0 0.00 0.00 0.00 36 1007.5
20260504013107 76 210 3.0 4.0 0.00 0.00 0.00 34 1007.4
20260504012604 76 198 0.0 0.0 0.00 0.00 0.00 35 1007.6
20260504012102 76 149 0.0 1.0 0.00 0.00 0.00 32 1007.4
20260504011559 76 6 1.0 1.0 0.00 0.00 0.00 32 1007.3
20260504011055 76 10 0.0 1.0 0.00 0.00 0.00 31 1007.5
20260504010550 76 304 3.0 4.0 0.00 0.00 0.00 30 1007.4
20260504010047 76 220 4.0 4.0 0.00 0.00 0.00 30 1007.7
20260504005543 76 198 2.0 3.0 0.00 0.00 0.00 30 1007.6
20260504005041 77 236 4.0 6.0 0.00 0.00 0.00 30 1008.0
20260504004539 77 323 3.0 4.0 0.00 0.00 0.00 28 1008.0